User: anonymous   Login
Location: Carri�res
(48.9069°N, 2.1792°E)
Time: 18:55:56
(UTC+00:00)
Language:

N. Korean satellite - Orbit

View from above orbital plane
View from above orbital plane
View from above satellite
View from above satellite

Ground track
Ground track

The orbit data is extracted from the following two-line orbital elements,

1 39026U 12072A   21335.24027304  .00006307  00000-0  20550-3 0  9999
2 39026  97.2566 324.2941 0035333 146.3509 213.9987 15.31560566498601
Epoch (UTC): 01 December 2021 05:45:59
Eccentricity: 0.0035333
inclination: 97.2566°
perigee height: 447 km
apogee height: 495 km
right ascension of ascending node: 324.2941°
argument of perigee: 146.3509°
revolutions per day: 15.31560566
mean anomaly at epoch: 213.9987°
orbit number at epoch: 49860

The dashed part of the orbit path shows where the satellite is in the earth's shadow,  

DLR